This is the latest recevied weather packets stored in our database for station/object KB1ZFK. If no packets are shown the sender has not sent any weather packets the latest 10 day(s).
| Time | Temp. | Humidity | Pressure | Rain* | Wind** | Luminosity | Snow |
|---|---|---|---|---|---|---|---|
| 1778072175 | 16.67° C | 81% | 1008.4 hPa | 0 mm | - | 63 W/m² | - |
| 1778071872 | 16.67° C | 82% | 1008.4 hPa | 0 mm | - | 79 W/m² | - |
| 1778071570 | 16.67° C | 82% | 1008.6 hPa | 0 mm | - | 75 W/m² | - |
| 1778071267 | 16.67° C | 82% | 1008.6 hPa | 0 mm | - | 64 W/m² | - |
| 1778070965 | 16.11° C | 82% | 1008.6 hPa | 0 mm | - | 88 W/m² | - |
| 1778070663 | 16.11° C | 83% | 1008.6 hPa | 0 mm | - | 85 W/m² | - |
| 1778070359 | 15.56° C | 83% | 1008.4 hPa | 0 mm | - | 88 W/m² | - |
| 1778070058 | 15.56° C | 84% | 1008.4 hPa | 0 mm | - | 101 W/m² | - |
| 1778069755 | 15.56° C | 84% | 1008.5 hPa | 0 mm | - | 67 W/m² | - |
| 1778069451 | 15.56° C | 84% | 1008.4 hPa | 0 mm | - | 69 W/m² | - |
| 1778069149 | 15.56° C | 84% | 1008.6 hPa | 0 mm | - | 47 W/m² | - |
| 1778068846 | 15.56° C | 83% | 1008.8 hPa | 0 mm | - | 52 W/m² | - |
| 1778068544 | 15.56° C | 84% | 1008.7 hPa | 0 mm | - | 94 W/m² | - |
| 1778068242 | 15.56° C | 84% | 1008.9 hPa | 0 mm | - | 110 W/m² | - |
| 1778067939 | 15° C | 85% | 1008.8 hPa | 0 mm | - | 122 W/m² | - |
| 1778067638 | 15° C | 86% | 1008.9 hPa | 0 mm | - | 91 W/m² | - |
| 1778067335 | 15° C | 86% | 1008.9 hPa | 0 mm | - | 36 W/m² | - |
| 1778067032 | 15° C | 85% | 1008.9 hPa | 0 mm | - | 41 W/m² | - |
| 1778066729 | 15° C | 85% | 1009 hPa | 0 mm | - | 55 W/m² | - |
| 1778066426 | 15° C | 85% | 1008.9 hPa | 0 mm | - | 54 W/m² | - |
| 1778066124 | 15° C | 85% | 1009 hPa | 0 mm | - | 50 W/m² | - |
| 1778065821 | 15° C | 85% | 1009 hPa | 0 mm | - | 59 W/m² | - |
| 1778065519 | 14.44° C | 86% | 1008.7 hPa | 0 mm | - | 66 W/m² | - |
| 1778065216 | 14.44° C | 86% | 1008.9 hPa | 0 mm | - | 59 W/m² | - |
| 1778064911 | 14.44° C | 86% | 1009 hPa | 0 mm | - | 55 W/m² | - |
* Rain latest hour (hover to see other rain measurements)
** Current wind speed in m/s (hover to see current wind gust speed)